Regional Weather Roundup
Issued by NWS

Home | Current Version | Previous Version | Text Only | Print | Product List | Glossary Off
Versions: 1 2 3 4 5 6 7 8 9 10 11 12 13 14 15 16 17 18 19 20 21 22 23 24 25 26 27 28 29 30 31 32 33 34 35 36 37 38 39 40 41 42 43 44 45 46 47 48 49 50

000
ASUS43 KDTX 120010
RWRMI
MICHIGAN HOURLY REGIONAL WEATHER ROUNDUP
NATIONAL WEATHER SERVICE DETROIT/PONTIAC MI
700 PM EST MON DEC 11 2017

NOTE: "FAIR" INDICATES FEW OR NO CLOUDS BELOW 12,000 FEET WITH NO
SIGNIFICANT WEATHER AND/OR OBSTRUCTION TO VISIBILITY.

MIZ047>049-052>055-059>063-066>070-074>076-081>083-120100-
SOUTHEAST LOWER MICHIGAN

CITY           SKY/WX    TMP DP  RH WIND       PRES   REMARKS
ADRIAN         CLOUDY    29  24  82 CALM      29.74F
6HR MIN TEMP:  28; 6HR MAX TEMP:  30; 6HR PCP: TRACE;

ALMA           CLOUDY    28  27  95 S5        29.73S WCI  23
6HR MIN TEMP:  23; 6HR MAX TEMP:  28;

ANN ARBOR      LGT SNOW  28  27  96 SE3       29.73F FOG
BAD AXE        CLOUDY    23  22  93 S7        29.75F WCI  15
6HR MIN TEMP:  19; 6HR MAX TEMP:  23;

CARO           CLOUDY    24  22  91 SE5       29.74F WCI  18
DETROIT CITY   LGT SNOW  29  28  96 S7        29.75F FOG     WCI  22
6HR MIN TEMP:  26; 6HR MAX TEMP:  29; 6HR PCP:  0.05;

DETROIT        LGT SNOW  31  28  89 SE5       29.75F VSB 1   WCI  26
6HR MIN TEMP:  29; 6HR MAX TEMP:  31; 6HR PCP:  0.07;

FLINT          CLOUDY    28  24  85 S5        29.74S WCI  23
6HR MIN TEMP:  26; 6HR MAX TEMP:  28; 6HR PCP: TRACE;

GROSSE ILE     CLOUDY    32  27  81 S9        29.73F WCI  25
6HR MIN TEMP:  29; 6HR MAX TEMP:  32;

HILLSDALE      CLOUDY    30  27  86 S6        29.70S WCI  24
HOWELL         LGT SNOW  28  28  98 S6        29.72S WCI  22
6HR MIN TEMP:  26; 6HR MAX TEMP:  28;


CITY           SKY/WX    TMP DP  RH WIND       PRES   REMARKS
JACKSON        LGT SNOW  29  24  82 SE5       29.72S WCI  24
6HR MIN TEMP:  28; 6HR MAX TEMP:  30; 6HR PCP:  0.03;

LAMBERTVILLE   CLOUDY    32  24  71 CALM      29.74F
6HR MIN TEMP:  29; 6HR MAX TEMP:  32;

LANSING        CLOUDY    29  27  92 S8        29.73S WCI  21
6HR MIN TEMP:  27; 6HR MAX TEMP:  30; 6HR PCP: TRACE;

LAPEER         CLOUDY    25  24  96 CALM      29.74F
6HR MIN TEMP:  21; 6HR MAX TEMP:  25;

MASON          LGT SNOW  29  25  86 S8        29.72S VSB 1   WCI  21
6HR MIN TEMP:  28; 6HR MAX TEMP:  31;

MONROE         CLOUDY    32  25  74 SE5       29.74F WCI  27
6HR MIN TEMP:  28; 6HR MAX TEMP:  32;

MT. CLEMENS    LGT SNOW  30  30 100 S12       29.73F VSB 3/4 WCI  21
6HR MIN TEMP:  24; 6HR MAX TEMP:  30; 6HR PCP:  0.01;

PONTIAC        SNOW      27  27 100 S7        29.72F VSB 1/2 WCI  19
6HR MIN TEMP:  23; 6HR MAX TEMP:  27; 6HR PCP: TRACE;

PORT HOPE        N/A     25  21  85 S6        29.73F WCI  18
6HR MIN TEMP:  21; 6HR MAX TEMP:  25;

PORT HURON     CLOUDY    28  25  86 SE7       29.75F WCI  21
TRI CITIES     CLOUDY    27  25  92 SE7       29.74F WCI  19
6HR MIN TEMP:  21; 6HR MAX TEMP:  27; 6HR PCP: TRACE;

MIDLAND        CLOUDY    28  25  86 S5        29.72F WCI  23
6HR MIN TEMP:  22; 6HR MAX TEMP:  28;

TROY           LGT SNOW  29  28  93 SE5       29.76F VSB 3/4 WCI  24
SAGINAW HB     CLOUDY    27  23  86 SE6       29.73F WCI  20
$$
MIZ043>046-050>051-056>058-064>065-071>073-077>080-120100-
SOUTHWEST LOWER MICHIGAN

CITY           SKY/WX    TMP DP  RH WIND       PRES   REMARKS
BATTLE CREEK   LGT SNOW  29  27  92 S5        29.72S VSB 1   WCI  24
6HR MIN TEMP:  29; 6HR MAX TEMP:  31; 6HR PCP:  0.02;

BENTON HARBOR  SNOW      31  26  82 CALM      29.74R VSB 1/2
6HR MIN TEMP:  31; 6HR MAX TEMP:  33; 6HR PCP: TRACE;

BIG RAPIDS     CLOUDY    25  24  94 CALM      29.70S FOG
6HR MIN TEMP:  22; 6HR MAX TEMP:  25;

COLDWATER      CLOUDY    31  26  83 MISG      29.71S
6HR MIN TEMP:  31; 6HR MAX TEMP:  32;

FREMONT        CLOUDY    29  27  93 CALM      29.72R
6HR MIN TEMP:  26; 6HR MAX TEMP:  29;

HOLLAND        CLOUDY    31  26  82 S6        29.75R WCI  25
6HR MIN TEMP:  30; 6HR MAX TEMP:  32;

GRAND RAPIDS   CLOUDY    30  26  85 S5        29.73R WCI  25
6HR MIN TEMP:  29; 6HR MAX TEMP:  30; 6HR PCP: TRACE;

IONIA          CLOUDY    29  25  83 S3        29.72R
6HR MIN TEMP:  27; 6HR MAX TEMP:  30;

KALAMAZOO      LGT SNOW  30  27  88 CALM      29.73R FOG
6HR MIN TEMP:  30; 6HR MAX TEMP:  32; 6HR PCP:  0.02;

LUDINGTON      MIX PCPN  28  26  94 CALM      29.72S
6HR MIN TEMP:  25; 6HR MAX TEMP:  28;

MARSHALL       LGT SNOW  28  28  97 CALM      29.72S
6HR MIN TEMP:  28; 6HR MAX TEMP:  31;

MOUNT PLEASANT CLOUDY    26  23  89 CALM      29.71F
6HR MIN TEMP:  22; 6HR MAX TEMP:  26;

MUSKEGON       CLOUDY    30  24  78 S3        29.74R
6HR MIN TEMP:  30; 6HR MAX TEMP:  31; 6HR PCP: TRACE;

SOUTH HAVEN    LGT SNOW  31  29  91 CALM      29.74R
$$
MIZ016>042-120100-
NORTHERN LOWER MICHIGAN

CITY           SKY/WX    TMP DP  RH WIND       PRES   REMARKS
ALPENA         LGT SNOW  22  21  96 S6        29.72F FOG     WCI  14
6HR MIN TEMP:  20; 6HR MAX TEMP:  22; 6HR PCP:  0.05;

BEAVER ISLAND  FLURRIES  28  24  84 NW10      29.69R WCI  19
6HR MIN TEMP:  26; 6HR MAX TEMP:  29;

BELLAIRE       FLURRIES  24  23  95 S7        29.70S WCI  16
6HR MIN TEMP:  22; 6HR MAX TEMP:  24;

CADILLAC       CLOUDY    21  20  96 SW3       29.67F
CHARLEVOIX     FLURRIES  24  22  90 S7        29.70F WCI  16
6HR MIN TEMP:  21; 6HR MAX TEMP:  24;

FRANKFORT      CLOUDY    32  28  86 NW14G22   29.71S WCI  22
GAYLORD        CLOUDY    19  16  88 S9        29.66S WCI   8
6HR MIN TEMP:  18; 6HR MAX TEMP:  19; 6HR PCP:  0.01;

GRAYLING       CLOUDY    21  18  88 CALM      29.69S
6HR MIN TEMP:  19; 6HR MAX TEMP:  21;

HARBOR SPRINGS CLOUDY    21  19  93 CALM      29.68F
HOUGHTON LAKE  LGT SNOW  20  18  92 S6        29.70S FOG     WCI  12
6HR MIN TEMP:  19; 6HR MAX TEMP:  20; 6HR PCP:  0.03;

MANISTEE       MIX PCPN  27  25  93 CALM      29.72S
OSCODA         LGT SNOW  25  23  93 S8        29.72F WCI  16
6HR MIN TEMP:  22; 6HR MAX TEMP:  25;

PELLSTON       CLOUDY    21  18  88 SE6       29.68F WCI  13
6HR MIN TEMP:  20; 6HR MAX TEMP:  21; 6HR PCP:  0.02;

ROGERS CITY    LGT SNOW  21  19  89 S8        29.71F WCI  12
TRAVERSE CITY  LGT SNOW  25  22  88 CALM      29.70S
6HR MIN TEMP:  23; 6HR MAX TEMP:  25; 6HR PCP:  0.01;

$$
MIZ007>008-015-120100-
EASTERN UPPER MICHIGAN

CITY           SKY/WX    TMP DP  RH WIND       PRES   REMARKS
KINROSS        LGT SNOW  19  18  93 CALM      29.69S FOG
MACKINAC ISLAN LGT SNOW  24  19  83 S6        29.68S WCI  17
6HR MIN TEMP:  22; 6HR MAX TEMP:  24;

NEWBERRY       CLOUDY    20  19  97 CALM      29.67S
6HR MIN TEMP:  17; 6HR MAX TEMP:  21;

S. S. MARIE    LGT SNOW  19  15  84 E6        29.69S FOG     WCI  11
6HR MIN TEMP:  14; 6HR MAX TEMP:  19; 6HR PCP:  0.10;

MUNISING         N/A     29  25  85 NW21G39   29.72R WCI  16
6HR MIN TEMP:  21; 6HR MAX TEMP:  29; 6HR PCP:  0.04;

$$
MIZ004>006-011>014-085-120100-
CENTRAL UPPER MICHIGAN

CITY           SKY/WX    TMP DP  RH WIND       PRES   REMARKS
MANISTIQUE     FLURRIES  23  18  81 W7        29.70S WCI  15
6HR MIN TEMP:  20; 6HR MAX TEMP:  24; 6HR PCP:  0.01;

ESCANABA       FLURRIES  25  20  81 NW10G17   29.75R WCI  15
6HR MIN TEMP:  24; 6HR MAX TEMP:  27; 6HR PCP: TRACE;

MENOMINEE      FLURRIES  25  21  86 VRB6      29.78R WCI  18
6HR MIN TEMP:  25; 6HR MAX TEMP:  26; 6HR PCP: TRACE;

SAWYER-GWINN   LGT SNOW  19  16  86 NW22      29.75R WCI   3
$$
MIZ001>003-009>011-084-120100-
WESTERN UPPER MICHIGAN

CITY           SKY/WX    TMP DP  RH WIND       PRES   REMARKS
IRON MOUNTAIN  MIX PCPN  23  16  74 NW16G25   29.77R WCI  10
6HR MIN TEMP:  21; 6HR MAX TEMP:  26; 6HR PCP: TRACE;

HOUGHTON       LGT SNOW  18   9  68 N21G32    29.85R WCI   1
6HR MIN TEMP:  18; 6HR MAX TEMP:  26; 6HR PCP:  0.01;

COPPER HARBOR    N/A     21  16  81 N39G49    29.83R WCI   1
6HR MIN TEMP:  20; 6HR MAX TEMP:  29; 6HR PCP:  0.02;

IRONWOOD       FLURRIES  19  11  70 NW13G24   29.94R WCI   6
6HR MIN TEMP:  19; 6HR MAX TEMP:  26;

$$

ABBREVIATIONS USED IN REMARKS
   TC - TEMPERATURE IN CELSIUS
  WCI - WIND CHILL INDEX
   HX - HEAT INDEX
  VSB - VISIBILITY





USA.gov is the U.S. government's official web portal to all federal, state and local government web resources and services.